Regional Weather Roundup
Issued by NWS

Home | Current Version | Previous Version | Text Only | Print | Product List | Glossary Off
Versions: 1 2 3 4 5 6 7 8 9 10 11 12 13 14 15 16 17 18 19 20 21 22 23 24 25 26 27 28 29 30 31 32 33 34 35 36 37 38 39 40 41 42 43 44 45 46 47 48 49 50

983
ASUS43 KMPX 262210
RWRMN
WEATHER ROUNDUP FOR MINNESOTA
NATIONAL WEATHER SERVICE TWIN CITIES/CHANHASSEN MN
500 PM CDT THU APR 26 2018


NOTE: "FAIR" INDICATES FEW OR NO CLOUDS BELOW 12,000 FEET WITH NO
SIGNIFICANT WEATHER AND/OR OBSTRUCTIONS TO VISIBILITY. N/A MEANS
CURRENT SKY AND/OR WEATHER CONDITIONS ARE NOT AVAILABLE.

MNZ060>063-068>070-262300-
   Twin Cities Metro

CITY           SKY/WX    TMP DP  RH WIND       PRES   REMARKS
TWIN CITIES    FAIR      65  31  28 NW18      29.87R
ST PAUL        FAIR      64  27  24 N18G24    29.87R
CRYSTAL        FAIR      63  28  26 NW17G24   29.87R
BLAINE         MOSUNNY   64  30  27 NW16G24   29.87S
LAKEVILLE      FAIR      63  27  25 NW18G26   29.86R
EDEN PRAIRIE   FAIR      63  29  27 N16G23    29.87R
SOUTH ST PAUL  FAIR      64  25  22 N15G23    29.85S
LAKE ELMO      FAIR      63  32  31 NW14G23   29.87R
$$
MNZ001>005-007-008-013>017-022>024-027-028-262300-
   Northwest Minnesota

CITY           SKY/WX    TMP DP  RH WIND       PRES   REMARKS
BEMIDJI        FAIR      55  22  28 W15G24    29.95R
HALLOCK        FAIR      61  23  23 NW6       29.94F
ROSEAU         FAIR      55  25  30 NW10G22   29.94F
WARROAD        FAIR      55  21  26 NW13      29.94F
THIEF RVR FALL FAIR      57  27  31 NW18G26   29.98F
CROOKSTON      FAIR      57  30  35 N17       29.98F
FOSSTON        FAIR      55  23  28 NW17G26   29.99S
DETROIT LAKES  FAIR      54  25  32 NW21G29   30.00F
MOORHEAD       FAIR      59  28  31 N21G29    30.01F
PARK RAPIDS    FAIR      57  25  29 NW20G28   29.95S
MAHNOMEN       FAIR      55  27  33 N20G26    29.98F
$$
MNZ006-009>011-018-025>026-262300-
   North Central Minnesota

CITY           SKY/WX    TMP DP  RH WIND       PRES   REMARKS
BAUDETTE       FAIR      53  24  32 N15G21    29.93F
FLAG ISLAND    FAIR      46  18  31 NW12      29.91F
INTL FALLS     FAIR      53  23  31 N12       29.91S
WASKISH        PTSUNNY   50  30  46 W6        29.94R
BIG FORK       FAIR      57  19  23 N12G18    29.91S
LONGVILLE      FAIR      55  21  26 NW7       29.93S
GRAND RAPIDS   FAIR      55  22  27 NW16G23   29.92S
CRANE LAKE     FAIR      50  23  34 NW8G17    29.92S
ORR            FAIR      54  21  28 NW10      29.87S
COOK           FAIR      54  25  32 NW10G17   29.90R
WALKER         FAIR      55  25  31 W15G24    29.94R
$$
MNZ012-019>021-037-262300-
   Northeast Minnesota

CITY           SKY/WX    TMP DP  RH WIND       PRES   REMARKS
DULUTH         FAIR      55  27  34 N15G23    29.88R
ELY            FAIR      50  23  34 N8        29.89R
HIBBING        FAIR      55  27  34 NW21      29.88R
EVELETH        FAIR      54  26  33 N14       29.89S
DULUTH HARBOR  FAIR      45  37  76 E8        29.90R
TWO HARBORS    FAIR      61  34  36 NW8G16    29.86R
SILVER BAY     PTSUNNY   55  27  33 N7        29.85S
GRAND MARAIS     N/A     56  30  37 VRB5      29.85S
G MARAIS ARPRT PTSUNNY   48  23  37 W6        29.86R
$$
MNZ029>031-032-039>041-046>048-054>057-064-262300-
   West Central Minnesota

CITY           SKY/WX    TMP DP  RH WIND       PRES   REMARKS
FERGUS FALLS   FAIR      57  28  33 N17G28    29.97F
WHEATON        MOSUNNY   57  28  33 NW20G32   30.03S
MORRIS         SUNNY     55  30  38 N26G35    30.00S
ALEXANDRIA     FAIR      58  26  29 N20G29    29.98S
ELBOW LAKE     FAIR      54  27  35 NW23G30   30.01R
WADENA         FAIR      55  28  35 NW20G25   29.96S
GLENWOOD       FAIR      55  25  30 NW23G32   29.98S
APPLETON       SUNNY     61  28  29 N22G32    30.00S
BENSON         SUNNY     57  25  28 N23G32    30.01R
ORTONVILLE     SUNNY     57  30  35 N21G31    30.01S
MADISON        SUNNY     61  32  33 NW23G30   30.01F
WILLMAR        FAIR      55  28  35 N21       29.99R
$$
MNZ033>034-036-042>043-049>051-058-059-262300-
   Central Minnesota

CITY           SKY/WX    TMP DP  RH WIND       PRES   REMARKS
ST CLOUD       FAIR      61  29  29 NW16G28   29.90R
SAUK CENTRE    FAIR      56  29  35 NW21G26   29.95S
PAYNESVILLE    FAIR      58  32  37 NW17G25   29.95R
AITKIN         FAIR      55  28  35 NW8G16    29.90S
PINE RIVER     FAIR      54  28  37 NW10G18   29.96S
BRAINERD       FAIR      58  25  28 N15G23    29.93S
STAPLES        FAIR      57  21  24 NW16G23   29.94S
LONG PRAIRIE   FAIR      55  28  35 W13G24    29.95S
LITTLE FALLS   FAIR      59  12  15 NW12G23   29.93R
LITCHFIELD     FAIR      61  32  33 NW20G25   29.93S
BUFFALO        FAIR      62  28  27 NW13G21   29.90R
MAPLE LAKE     FAIR      63  32  31 N14G21    29.91R
HUTCHINSON     FAIR      60  36  40 NW20G25   29.93R
$$
MNZ037-044-045-052-053-262300-
   East Central Minnesota

CITY           SKY/WX    TMP DP  RH WIND       PRES   REMARKS
PRINCETON      FAIR      63  30  29 NW14G21   29.90S
MORA           FAIR      55  30  38 NW20      29.91R
CAMBRIDGE      FAIR      63  39  42 N14       29.89R
RUSH CITY      FAIR      60  32  34 NW13G21   29.87R
MOOSE LAKE     FAIR      59  32  36 NW15G21   29.87R
HINCKLEY       FAIR      61  32  33 N12G21    29.88R
CLOQUET        FAIR      55  21  26 NW16G25   29.89R
MCGREGOR       FAIR      55  28  35 N14G24    29.90R
$$
MNZ071>073-080-081-089-090-097-098-262300-
   Southwest Minnesota

CITY           SKY/WX    TMP DP  RH WIND       PRES   REMARKS
MONTEVIDEO     SUNNY     57  34  41 N25G32    30.00S
GRANITE FALLS  SUNNY     58  34  39 NW22G31   30.01S
CANBY          SUNNY     60  30  32 NW18G29   30.02F
MARSHALL       SUNNY     56  35  45 N24G32    30.00S
REDWOOD FALLS  SUNNY     57  30  35 NW21G33   29.97R
OLIVIA         SUNNY     55  32  41 NW21G32   29.96R
PIPESTONE      SUNNY    N/A N/A N/A N18G33    30.02S
WINDOM         SUNNY     57  30  35 NW26G33   29.97F
WORTHINGTON    SUNNY     56  34  43 NW23G37   30.01R
JACKSON        SUNNY     55  34  44 NW26G37   29.98S
TRACY          SUNNY     56  38  49 NW22G29   30.00S
SLAYTON        SUNNY     55  35  47 NW22G28   30.01S
$$
MNZ065>067-074>077-082>085-091>093-262300-
   South Central Minnesota

CITY           SKY/WX    TMP DP  RH WIND       PRES   REMARKS
MANKATO        FAIR      61  33  35 NW20G25   29.90S
NEW ULM        SUNNY     61  25  25 N20G29    29.94R
ST JAMES       SUNNY     57  36  44 NW21G32   29.96S
FAIRMONT       SUNNY     57  36  45 NW24G33   29.95R
GLENCOE        FAIR      61  34  36 W18G26    29.90S
OWATONNA       FAIR      63  36  36 NW18G28   29.87S
WASECA         FAIR      61  36  39 NW21G30   29.90S
ALBERT LEA     FAIR      61  32  33 NW17      29.88S
$$
MNZ078>079-086>088-094>096-262300-
   Southeast Minnesota

CITY           SKY/WX    TMP DP  RH WIND       PRES   REMARKS
ROCHESTER      FAIR      63  42  46 NW22G30   29.84F
RED WING       FAIR      66  27  22 NE12      29.83S
STANTON        FAIR      64  32  29 NW20G31   29.84S
DODGE CENTER   FAIR      61  36  39 NW17G25   29.86S
WINONA         FAIR      68  37  32 W12       29.79S
AUSTIN         FAIR      63  37  39 NW20G25   29.86S
PRESTON        FAIR      63  40  43 NW15      29.84F
$$
ABBREVIATIONS USED IN REMARKS
   TC - TEMPERATURES IN CELSIUS
  WCI - WIND CHILL INDEX
   HX - HEAT INDEX
  VSB - VISIBILITY
$$




USA.gov is the U.S. government's official web portal to all federal, state and local government web resources and services.